When you browse on this site, cookies collect data to enhance your experience and personalize the content and advertising you see.
Visit our Privacy Policy to learn more. By continuing to use the site, you agree to this use of cookies and data.
  • In Spain
  • List of Countries
  • For 7 days
  • Water Temperature
  • Satellite Maps
  • Weather Map
  • Weather Widgets
  • user-avatar
    Login

    Hourly Weather Bhubaneswar

    Today, 17 February, Sunday

    Time Temperature Precipitation Wind Pressure Humidity
    00:00 +22°C° 0 mm 1 mps 758 mmHg 72%
    01:00 +22°C° 0 mm 1 mps 758 mmHg 74%
    02:00 +22°C° 0 mm 1 mps 757 mmHg 75%
    03:00 +21°C° 0 mm 2 mps 757 mmHg 76%
    04:00 +21°C° 0 mm 2 mps 757 mmHg 76%
    05:00 +22°C° 0 mm 1 mps 757 mmHg 77%
    06:00 +21°C° 0 mm 2 mps 757 mmHg 92%
    07:00 +23°C° 0 mm 2 mps 757 mmHg 83%
    08:00 +25°C° 0 mm 3 mps 758 mmHg 74%
    09:00 +27°C° 0 mm 3 mps 758 mmHg 65%
    10:00 +29°C° 0 mm 4 mps 758 mmHg 55%
    11:00 +33°C° 0 mm 4 mps 757 mmHg 45%
    12:00 +35°C° 0 mm 4 mps 757 mmHg 31%
    13:00 +35°C° 0 mm 4 mps 756 mmHg 28%
    14:00 +36°C° 0 mm 5 mps 756 mmHg 26%
    15:00 +37°C° 0 mm 5 mps 755 mmHg 24%
    16:00 +35°C° 0 mm 5 mps 755 mmHg 28%
    17:00 +34°C° 0 mm 4 mps 754 mmHg 32%
    18:00 +33°C° 0 mm 3 mps 754 mmHg 36%
    19:00 +30°C° 0 mm 3 mps 755 mmHg 47%
    20:00 +28°C° 0 mm 2 mps 755 mmHg 59%
    21:00 +26°C° 0 mm 2 mps 755 mmHg 70%
    22:00 +25°C° 0 mm 2 mps 755 mmHg 74%
    23:00 +25°C° 0 mm 2 mps 755 mmHg 77%

    Tomorrow, 18 February, Monday

    Time Temperature Precipitation Wind Pressure Humidity
    00:00 +25°C° 0 mm 2 mps 755 mmHg 81%
    01:00 +24°C° 0 mm 2 mps 755 mmHg 80%
    02:00 +24°C° 0 mm 1 mps 755 mmHg 78%
    03:00 +24°C° 0 mm 1 mps 755 mmHg 77%
    04:00 +24°C° 0 mm 1 mps 755 mmHg 74%
    05:00 +23°C° 0 mm 2 mps 755 mmHg 71%
    06:00 +23°C° 0 mm 2 mps 755 mmHg 68%
    07:00 +24°C° 0 mm 2 mps 756 mmHg 57%
    08:00 +26°C° 0 mm 3 mps 757 mmHg 46%
    09:00 +27°C° 0 mm 3 mps 757 mmHg 35%
    10:00 +29°C° 0 mm 3 mps 757 mmHg 31%
    11:00 +31°C° 0 mm 2 mps 757 mmHg 27%
    12:00 +33°C° 0 mm 1 mps 757 mmHg 23%
    13:00 +34°C° 0 mm 1 mps 757 mmHg 21%
    14:00 +35°C° 0 mm 1 mps 756 mmHg 20%
    15:00 +35°C° 0 mm 1 mps 755 mmHg 18%
    16:00 +34°C° 0 mm 2 mps 755 mmHg 28%
    17:00 +32°C° 0 mm 4 mps 755 mmHg 37%
    18:00 +29°C° 0 mm 5 mps 755 mmHg 47%
    19:00 +28°C° 0 mm 4 mps 755 mmHg 58%
    20:00 +26°C° 0 mm 3 mps 756 mmHg 70%
    21:00 +24°C° 0 mm 2 mps 757 mmHg 81%
    22:00 +24°C° 0 mm 2 mps 757 mmHg 83%
    23:00 +24°C° 0 mm 1 mps 757 mmHg 85%

    Day after tomorrow, 19 February, Tuesday

    Time Temperature Precipitation Wind Pressure Humidity
    00:00 +24°C° 0 mm 1 mps 757 mmHg 87%
    01:00 +23°C° 0 mm 1 mps 756 mmHg 90%
    02:00 +23°C° 0 mm 1 mps 756 mmHg 93%
    03:00 +23°C° 0 mm 1 mps 756 mmHg 96%
    04:00 +23°C° 0 mm 1 mps 756 mmHg 96%
    05:00 +23°C° 0 mm 1 mps 756 mmHg 97%
    06:00 +21°C° 0 mm 0 mps 756 mmHg 97%
    07:00 +22°C° 0 mm 0 mps 757 mmHg 92%
    08:00 +23°C° 0 mm 0 mps 758 mmHg 86%
    09:00 +27°C° 0 mm 1 mps 759 mmHg 81%
    10:00 +29°C° 0 mm 1 mps 759 mmHg 69%
    11:00 +31°C° 0 mm 1 mps 759 mmHg 57%
    12:00 +34°C° 0 mm 1 mps 759 mmHg 45%
    13:00 +34°C° 0 mm 1 mps 758 mmHg 40%
    14:00 +36°C° 0 mm 2 mps 757 mmHg 35%
    15:00 +37°C° 0 mm 2 mps 757 mmHg 30%
    16:00 +35°C° 0 mm 3 mps 757 mmHg 39%
    17:00 +33°C° 0 mm 4 mps 757 mmHg 48%
    18:00 +32°C° 0 mm 5 mps 757 mmHg 56%
    19:00 +29°C° 0 mm 4 mps 758 mmHg 66%
    20:00 +28°C° 0 mm 4 mps 758 mmHg 75%
    21:00 +26°C° 0 mm 3 mps 759 mmHg 84%
    22:00 +26°C° 0 mm 3 mps 759 mmHg 87%
    23:00 +25°C° 0 mm 2 mps 759 mmHg 90%

    20 February, Wednesday

    Time Temperature Precipitation Wind Pressure Humidity
    00:00 +25°C° 0 mm 2 mps 759 mmHg 93%
    01:00 +25°C° 0 mm 2 mps 759 mmHg 94%
    02:00 +24°C° 0 mm 2 mps 758 mmHg 95%
    03:00 +24°C° 0 mm 2 mps 758 mmHg 96%
    04:00 +24°C° 0 mm 2 mps 758 mmHg 96%
    05:00 +24°C° 0 mm 2 mps 758 mmHg 96%
    06:00 +24°C° 0 mm 2 mps 758 mmHg 96%
    07:00 +25°C° 0 mm 2 mps 759 mmHg 87%
    08:00 +27°C° 0 mm 3 mps 760 mmHg 78%
    09:00 +29°C° 0 mm 3 mps 760 mmHg 70%
    10:00 +31°C° 0 mm 3 mps 760 mmHg 59%
    11:00 +34°C° 0 mm 3 mps 760 mmHg 47%
    12:00 +36°C° 0 mm 4 mps 760 mmHg 36%
    13:00 +36°C° 0 mm 4 mps 759 mmHg 34%
    14:00 +37°C° 0 mm 4 mps 758 mmHg 32%
    15:00 +37°C° 0 mm 4 mps 757 mmHg 30%
    16:00 +35°C° 0 mm 5 mps 757 mmHg 36%
    17:00 +33°C° 0 mm 5 mps 757 mmHg 43%
    18:00 +30°C° 0 mm 6 mps 757 mmHg 49%
    19:00 +29°C° 0 mm 5 mps 758 mmHg 60%
    20:00 +27°C° 0 mm 3 mps 759 mmHg 71%
    21:00 +26°C° 0 mm 2 mps 760 mmHg 82%
    22:00 +25°C° 0 mm 2 mps 760 mmHg 86%
    23:00 +25°C° 0 mm 2 mps 760 mmHg 89%

    21 February, Thursday

    Time Temperature Precipitation Wind Pressure Humidity
    00:00 +24°C° 0 mm 2 mps 760 mmHg 92%
    01:00 +24°C° 0 mm 2 mps 760 mmHg 93%
    02:00 +24°C° 0 mm 2 mps 759 mmHg 94%
    03:00 +24°C° 0 mm 1 mps 759 mmHg 95%
    04:00 +23°C° 0 mm 1 mps 759 mmHg 95%
    05:00 +23°C° 0 mm 1 mps 759 mmHg 95%
    06:00 +23°C° 0 mm 1 mps 759 mmHg 95%
    07:00 +25°C° 0 mm 1 mps 760 mmHg 86%
    08:00 +26°C° 0 mm 1 mps 761 mmHg 76%
    09:00 +28°C° 0 mm 2 mps 761 mmHg 67%
    10:00 +31°C° 0 mm 2 mps 761 mmHg 56%
    11:00 +34°C° 0 mm 2 mps 761 mmHg 45%
    12:00 +36°C° 0 mm 2 mps 760 mmHg 34%
    13:00 +37°C° 0 mm 2 mps 759 mmHg 31%
    14:00 +38°C° 0 mm 2 mps 758 mmHg 29%
    15:00 +39°C° 0 mm 2 mps 757 mmHg 26%
    16:00 +37°C° 0 mm 3 mps 757 mmHg 31%
    17:00 +35°C° 0 mm 4 mps 757 mmHg 36%
    18:00 +33°C° 0 mm 5 mps 757 mmHg 42%
    19:00 +30°C° 0 mm 4 mps 758 mmHg 51%
    20:00 +28°C° 0 mm 3 mps 758 mmHg 59%
    21:00 +26°C° 0 mm 2 mps 759 mmHg 68%
    22:00 +26°C° 0 mm 2 mps 759 mmHg 71%
    23:00 +25°C° 0 mm 2 mps 758 mmHg 73%

    22 February, Friday

    Time Temperature Precipitation Wind Pressure Humidity
    00:00 +25°C° 0 mm 2 mps 758 mmHg 76%
    01:00 +25°C° 0 mm 2 mps 758 mmHg 77%
    02:00 +24°C° 0 mm 2 mps 757 mmHg 78%
    03:00 +24°C° 0 mm 2 mps 757 mmHg 79%
    04:00 +24°C° 0 mm 2 mps 757 mmHg 79%
    05:00 +24°C° 0 mm 1 mps 757 mmHg 79%
    06:00 +23°C° 0 mm 1 mps 757 mmHg 79%
    07:00 +26°C° 0 mm 1 mps 758 mmHg 68%
    08:00 +28°C° 0 mm 2 mps 758 mmHg 58%
    09:00 +30°C° 0 mm 2 mps 759 mmHg 47%
    10:00 +34°C° 0 mm 2 mps 758 mmHg 40%
    11:00 +36°C° 0 mm 2 mps 758 mmHg 32%
    12:00 +39°C° 0 mm 2 mps 758 mmHg 25%
    13:00 +39°C° 0 mm 2 mps 757 mmHg 23%
    14:00 +40°C° 0 mm 2 mps 756 mmHg 21%
    15:00 +41°C° 0 mm 2 mps 755 mmHg 19%
    16:00 +39°C° 0 mm 3 mps 755 mmHg 25%
    17:00 +37°C° 0 mm 4 mps 755 mmHg 30%
    18:00 +35°C° 0 mm 5 mps 755 mmHg 35%
    19:00 +33°C° 0 mm 4 mps 756 mmHg 43%
    20:00 +30°C° 0 mm 4 mps 756 mmHg 52%
    21:00 +28°C° 0 mm 4 mps 757 mmHg 61%
    22:00 +28°C° 0 mm 4 mps 757 mmHg 61%
    23:00 +27°C° 0 mm 3 mps 757 mmHg 61%
    Show more